Погода в Братолюбовке

Погода в Братолюбовке : погода сейчас, прогноз погоды и архив. Всё, что Вы хотите узнать о погоде в Братолюбовке!

Поиск расширенной информации на нашем сайте:

Другие новости

Новости СМИ2

Главная страница сайта

Новости сайта

03.07.2017

Напоминаем, что на нашем специализированном сайте Метеоцентр.Азия вы можете получить высокодетализированные автоматические прогнозы погоды по пунктам России, СНГ и мира в авиационном формате (включающие направление и скорость ветра, видимость, явления погоды, количество и форму облачности, нижнюю и верхнюю границу облачности).


Погода в Братолюбовке - сегодня

Время (UTC), дата Ветер
(°,м/с) 
Видим.   Явления Облачность Т
(°С)
Тd
(°С)
f(%) Тe
(°С)
Pmin
(гПа)
dP
(гПа)
Po
(мм)
O2
(г/м3)
Тmin Tmax R s Состояние
почвы
15 18.02.18 240 (ЮЗ) 50000 м    ясно 
-21 -25.3 68 -21  1019.3  -0.6  741  325           
18 18.02.18 260 (З) 50000 м    ясно 
-21 -25.7 66 -24  1018.8  -0.5  741  325           
21 18.02.18 250 (З) 50000 м    ясно 
-22.7 -27.2 67 -26  1018.5  -0.5  740  327           
03 19.02.18 280 (З) 20000 м    ясно 
-16.5 -24.9 48 -22  1017.1  -0.6  740  319           
06 19.02.18 290 (З) 20000 м    ясно 
-14.1 -24.9 40 -20  1016.2  -0.6  739  316           
09 19.02.18 310 (СЗ) 20000 м    1/0 средняя 
[Ac lent]
-16.6 -27.3 39 -19  1017.1  0.6  740  319           
12 19.02.18 290 (З) 50000 м    ясно 
-20.8 -28.9 48 -21  1017.9  0.3  740  325    -13.9       
15 19.02.18 260 (З) 50000 м    ясно 
-23 -29.4 56 -26  1017.5  -0.7  740  327           
18 19.02.18 270 (З) 50000 м    ясно 
-24.3 -30.2 58 -29  1017.2  -0.4  739  329           
21 19.02.18 270 (З) 50000 м    ясно 
-26.2 -31.5 61 -31  1017.2  -0.3  739  331           
03 20.02.18 280 (З) 20000 м    ясно 
-18.7 -27.4 46 -24  1017.1  0.3  740  322           
06 20.02.18 300 (СЗ) 20000 м    ясно 
-15.7 -26.5 39 -21  1016.6  -0.2  740  318           
09 20.02.18 260 (З) 20000 м    ясно 
-17 -26.6 43 -19  1017.4  0.6  740  320           
12 20.02.18 250 (З) 50000 м    ясно 
-20.5 -27.3 54 -23  1018.2  0.4  740  324    -15       
15 20.02.18 240 (ЮЗ) 50000 м    ясно 
-22.1 -28.7 55 -25  1017.7  -0.6  740  326           
18 20.02.18 250 (З) 50000 м    ясно 
-22.8 -29.2 56 -26  1017.2  -0.6  739  327           
21 20.02.18 230 (ЮЗ) 50000 м    ясно 
-23.8 -29.2 61 -27  1016.8  -0.6  739  328           
03 21.02.18 290 (З) 20000 м    ясно 
-14.3 -26.1 36 -14  1014.9  -0.6  738  316           
06 21.02.18 280 (З) 20000 м    1/0 верхняя 
[Ci sp]
-12.1 -24.9 34 -15  1013.1  -1.5  737  312           
09 21.02.18 270 (З) 20000 м    3/0 средняя 
[Ac lent]
-17.2 -24.7 52 -17  1014.1  0.4  738  319           
15 21.02.18 тихо ()   50000 м    ясно 
-21.1 -24.8 72 -21  1014.7  -0.5  738  324           
18 21.02.18 тихо ()   50000 м    ясно 
-26 -29.1 75 -26  1014.8  -0.5  737  330           
21 21.02.18 тихо ()   50000 м    4/0 верхняя 
[Ci fib]
-27.2 -30.5 73 -27  1014.9  737  332           
00 22.02.18 тихо ()   20000 м    1/0 верхняя 
[Ci fib]
-23 -25.9 77 -23  1015.5  1.1  738  326  -29.9      16  равномерный
сухой снег
100% 
03 22.02.18 300 (СЗ) 20000 м    3/0 верхняя 
[Ci sp]
-16.1 -24.9 47 -20  1014.9  0.3  738  318           
Время (UTC), дата Ветер
(°,м/с) 
Видим.   Явления Облачность Т
(°С)
Тd
(°С)
f(%) Тe
(°С)
Pmin
(гПа)
dP
(гПа)
Po
(мм)
O2
(г/м3)
Тmin Tmax R s Состояние
почвы

Для получения пояснительной информации подведите курсор к названию столбца.

ПОГОДА в Братолюбовке - архив

Всё, что Вы хотите узнать о погоде в Братолюбовке - удобно и подробно!

Выберите нужную дату (начиная с 1 января 2015* года) и нажмите кнопку "Найти".
Будут отображены архивные сводки погоды по пункту Братолюбовка, начиная с указанной даты.


Отображать данные в формате CSV (для использования в таблицах Excel)


Внимание! Наш архив погоды предназначен исключительно для личного некоммерческого использования в познавательных целях. Если Вам необходимы официальные справки о состоянии погоды (для производственных, юридических, коммерческих и т.п. целей), обращайтесь в органы Росгидромета.

*Примечание: данная дата относится к архиву по метеостанциям СССР (Россия, СНГ, Балтия).
Архив по метеостанциям Зарубежной Европы и Азии (кроме Китая) хранится 10 дней, по другим регионам земного шара (Китай, Африка, Америка, Австралия, Океания) - 1 день.

Братолюбовка - район местоположения метеостанции


Название, широта, долгота, высота метеостанции:
Братолюбовка 50.8°ш. 129.3°д. 227 м над ур. моря [Российская Федерация]

Дополнительная информация

В oтличие oт бoльшинства пoгoдных сайтoв мы публикуем пoдрoбную метеoинфoрмацию в детальнoм прoфессиoнальнoм фoрмате.

Характеристики температуры и влажнoсти вoздуха измеряются на высoте 2 м в тени вдали oт зданий и деревьев.
Скoрoсть ветра измеряется на высoте 10 м (на урoвне рoста челoвека скoрoсть ветра ниже в 1.5-2 раза). Если метеoстанция нахoдится в гoрoде или в лесу, тo скoрoсть ветра занижена на 2-4 м/с пo сравнению с oткрытым местoм. Скoрoсть ветра над акватoриями крупных рек и oзёр, а также на вершинах хoлмoв на 2-5 м/с выше, чем в oбычных услoвиях.
Атмoсфернoе давление в разных тoчках местнoсти мoжет значительнo oтличаться oт давления на метеoстанции, в зависимoсти oт услoвий рельефа (при пoдъёме на 10 м давление пoнижается примернo на 1 мм рт.ст.).